Шимбилик

Россия / Забайкальский край     50°33′48″N   109°34′25″E
темп.,
°C
ветер,
м/с
пор.,
м/с
влажн.,
%
обл.,
%
осадки,
мм/ч
давл.,
гПа
погр.,
м
14 мая, пт
пт1400:00−2зсз11645 0.0 101712
03:00−4зюз22683 0.0 101819
06:00−4зюз22725 0.0 101934
09:00+2з35525 0.0 10171091
12:00+7зсз4640100 0.0 10152180
15:00+8сз564098 0.1 10142203
18:00+9сз4738100 0.1 10142218
21:00+4зюз11587 0.1 101610
15 мая, сб
сб1500:000юз22742 0.0 102016
03:00−1юз11790 0.0 102114
06:00−2ююз11810 0.0 102215
09:00+6ююз13440 0.0 1019420
12:00+13з46231 0.0 10151636
15:00+16з57193 0.0 10132924
18:00+15зсз57211 0.0 10122746
21:00+8зсз244776 0.0 101453
16 мая, вс
вс1600:00+4зюз126568 0.0 101815
03:00+2юз21705 0.0 101814
06:00+2юз11745 0.0 101815
09:00+9зюз26478 0.0 1016573
12:00+15зюз493620 0.0 10121747
15:00+19з592589 0.0 10083065
18:00+18зсз692787 0.0 10072751
21:00+11сз38635 0.0 1011466
17 мая, пн
пн1700:00+6з11875 0.0 101313
03:00+4юз11945 0.0 101217
06:00+5ююв128798 0.0 100945
09:00+12ююз14557 0.0 1005505
12:00+18з493810 0.0 10021642
15:00+17сз61043100 0.0 10021986
18:00+17сз6113845 0.0 10021821
21:00+11з225737 0.0 100313
18 мая, вт
вт1800:00+7ююз1173100 0.0 100317
03:00+6ююз117896 0.0 100222
06:00+7зюз1179100 0.2 100130
09:00+11сз267196 0.8 1002831
12:00+10зсз2675100 0.8 10041118
15:00+9сз5666100 1.8 10071137
18:00+13з473292 0.0 10052083
21:00+8з12515 0.0 100623